• en France
  • Liste des pays
  • À 7 jours
  • Température de l'eau
  • Carte satellitaire
  • Carte météo
  • Widgets météo
  • user-avatar
    Se connecter

    Météo par heure à Kardjali

    Ce jour, 23 Septembre, Samedi

    Heure Température Précipitation Vent Pression Humidité
    00:00 +12°C° 0 mm 2 m/s 728 mmHg 67%
    01:00 +12°C° 0 mm 2 m/s 728 mmHg 67%
    02:00 +12°C° 0 mm 2 m/s 728 mmHg 69%
    03:00 +10°C° 0 mm 2 m/s 728 mmHg 70%
    04:00 +10°C° 0 mm 2 m/s 728 mmHg 72%
    05:00 +10°C° 0 mm 2 m/s 728 mmHg 73%
    06:00 +12°C° 0 mm 2 m/s 728 mmHg 68%
    07:00 +14°C° 0 mm 2 m/s 729 mmHg 64%
    08:00 +15°C° 0 mm 2 m/s 729 mmHg 59%
    09:00 +17°C° 0 mm 2 m/s 729 mmHg 53%
    10:00 +18°C° 0 mm 2 m/s 730 mmHg 48%
    11:00 +20°C° 0 mm 2 m/s 730 mmHg 42%
    12:00 +20°C° 0 mm 2 m/s 730 mmHg 41%
    13:00 +21°C° 0 mm 3 m/s 730 mmHg 40%
    14:00 +21°C° 0 mm 3 m/s 730 mmHg 39%
    15:00 +21°C° 0 mm 3 m/s 730 mmHg 40%
    16:00 +21°C° 0 mm 2 m/s 729 mmHg 41%
    17:00 +21°C° 0 mm 2 m/s 729 mmHg 42%
    18:00 +19°C° 0 mm 2 m/s 729 mmHg 49%
    19:00 +17°C° 0 mm 2 m/s 730 mmHg 55%
    20:00 +15°C° 0 mm 1 m/s 730 mmHg 62%
    21:00 +15°C° 0 mm 1 m/s 730 mmHg 63%
    22:00 +15°C° 0 mm 1 m/s 730 mmHg 64%
    23:00 +14°C° 0 mm 1 m/s 730 mmHg 65%

    Demain, 24 Septembre, Dimanche

    Heure Température Précipitation Vent Pression Humidité
    00:00 +14°C° 0 mm 1 m/s 730 mmHg 65%
    01:00 +14°C° 0 mm 1 m/s 730 mmHg 65%
    02:00 +14°C° 0 mm 1 m/s 730 mmHg 65%
    03:00 +13°C° 0 mm 1 m/s 730 mmHg 65%
    04:00 +13°C° 0 mm 1 m/s 730 mmHg 65%
    05:00 +13°C° 0 mm 1 m/s 730 mmHg 64%
    06:00 +14°C° 0 mm 1 m/s 730 mmHg 60%
    07:00 +15°C° 0 mm 0 m/s 730 mmHg 56%
    08:00 +16°C° 0 mm 0 m/s 730 mmHg 51%
    09:00 +20°C° 0 mm 1 m/s 730 mmHg 46%
    10:00 +22°C° 0 mm 1 m/s 731 mmHg 41%
    11:00 +24°C° 0 mm 1 m/s 731 mmHg 35%
    12:00 +25°C° 0 mm 2 m/s 730 mmHg 34%
    13:00 +25°C° 0 mm 2 m/s 730 mmHg 32%
    14:00 +26°C° 0 mm 3 m/s 730 mmHg 31%
    15:00 +25°C° 0 mm 3 m/s 730 mmHg 33%
    16:00 +25°C° 0 mm 2 m/s 730 mmHg 35%
    17:00 +24°C° 0 mm 2 m/s 729 mmHg 37%
    18:00 +23°C° 0 mm 2 m/s 729 mmHg 42%
    19:00 +20°C° 0 mm 2 m/s 729 mmHg 46%
    20:00 +19°C° 0 mm 1 m/s 729 mmHg 51%
    21:00 +19°C° 0 mm 1 m/s 729 mmHg 52%
    22:00 +18°C° 0 mm 1 m/s 729 mmHg 53%
    23:00 +18°C° 0 mm 1 m/s 729 mmHg 54%

    Après-demain, 25 Septembre, Lundi

    Heure Température Précipitation Vent Pression Humidité
    00:00 +18°C° 0 mm 1 m/s 729 mmHg 55%
    01:00 +16°C° 0 mm 1 m/s 729 mmHg 56%
    02:00 +16°C° 0 mm 1 m/s 729 mmHg 57%
    03:00 +16°C° 0 mm 1 m/s 729 mmHg 58%
    04:00 +16°C° 0 mm 1 m/s 729 mmHg 59%
    05:00 +16°C° 0 mm 1 m/s 729 mmHg 60%
    06:00 +17°C° 0 mm 2 m/s 729 mmHg 59%
    07:00 +17°C° 0 mm 2 m/s 729 mmHg 57%
    08:00 +18°C° 0 mm 2 m/s 730 mmHg 56%
    09:00 +20°C° 0 mm 3 m/s 730 mmHg 52%
    10:00 +21°C° 0 mm 4 m/s 730 mmHg 47%
    11:00 +23°C° 0 mm 5 m/s 730 mmHg 43%
    12:00 +25°C° 0 mm 5 m/s 729 mmHg 41%
    13:00 +25°C° 0 mm 5 m/s 729 mmHg 39%
    14:00 +26°C° 0 mm 5 m/s 729 mmHg 38%
    15:00 +26°C° 0 mm 5 m/s 729 mmHg 40%
    16:00 +25°C° 0 mm 5 m/s 729 mmHg 43%
    17:00 +23°C° 0 mm 5 m/s 728 mmHg 46%
    18:00 +22°C° 0,1 mm 5 m/s 729 mmHg 53%
    19:00 +20°C° 0,1 mm 5 m/s 729 mmHg 59%
    20:00 +19°C° 0,1 mm 4 m/s 729 mmHg 65%
    21:00 +18°C° 0 mm 4 m/s 729 mmHg 70%
    22:00 +17°C° 0 mm 3 m/s 729 mmHg 74%
    23:00 +17°C° 0 mm 3 m/s 729 mmHg 79%

    26 Septembre, Mardi

    Heure Température Précipitation Vent Pression Humidité
    00:00 +17°C° 0 mm 3 m/s 729 mmHg 80%
    01:00 +16°C° 0 mm 3 m/s 729 mmHg 81%
    02:00 +16°C° 0 mm 3 m/s 728 mmHg 83%
    03:00 +16°C° 0 mm 3 m/s 728 mmHg 82%
    04:00 +16°C° 0 mm 3 m/s 728 mmHg 82%
    05:00 +16°C° 0 mm 3 m/s 728 mmHg 81%
    06:00 +16°C° 0 mm 3 m/s 728 mmHg 78%
    07:00 +17°C° 0 mm 3 m/s 728 mmHg 75%
    08:00 +17°C° 0 mm 4 m/s 728 mmHg 72%
    09:00 +19°C° 0 mm 4 m/s 729 mmHg 65%
    10:00 +20°C° 0 mm 4 m/s 729 mmHg 58%
    11:00 +21°C° 0 mm 4 m/s 729 mmHg 51%
    12:00 +22°C° 0 mm 4 m/s 729 mmHg 48%
    13:00 +23°C° 0 mm 4 m/s 728 mmHg 46%
    14:00 +24°C° 0 mm 3 m/s 728 mmHg 44%
    15:00 +24°C° 0 mm 3 m/s 728 mmHg 45%
    16:00 +24°C° 0 mm 3 m/s 728 mmHg 46%
    17:00 +24°C° 0 mm 3 m/s 728 mmHg 47%
    18:00 +21°C° 0,2 mm 3 m/s 728 mmHg 53%
    19:00 +20°C° 0,2 mm 3 m/s 728 mmHg 59%
    20:00 +18°C° 0,2 mm 3 m/s 728 mmHg 64%
    21:00 +18°C° 0,7 mm 3 m/s 729 mmHg 70%
    22:00 +17°C° 0,7 mm 3 m/s 729 mmHg 75%
    23:00 +17°C° 0,7 mm 3 m/s 729 mmHg 80%

    27 Septembre, Mercredi

    Heure Température Précipitation Vent Pression Humidité
    00:00 +16°C° 0,3 mm 2 m/s 729 mmHg 82%
    01:00 +16°C° 0,3 mm 2 m/s 729 mmHg 85%
    02:00 +16°C° 0,3 mm 2 m/s 729 mmHg 87%
    03:00 +15°C° 0 mm 2 m/s 729 mmHg 88%
    04:00 +15°C° 0 mm 2 m/s 729 mmHg 88%
    05:00 +15°C° 0 mm 2 m/s 729 mmHg 89%
    06:00 +15°C° 0 mm 2 m/s 729 mmHg 85%
    07:00 +16°C° 0 mm 3 m/s 730 mmHg 81%
    08:00 +17°C° 0 mm 3 m/s 730 mmHg 78%
    09:00 +18°C° 0 mm 3 m/s 730 mmHg 72%
    10:00 +19°C° 0 mm 3 m/s 731 mmHg 66%
    11:00 +20°C° 0 mm 3 m/s 731 mmHg 60%
    12:00 +21°C° 0,1 mm 3 m/s 731 mmHg 56%
    13:00 +22°C° 0,1 mm 4 m/s 731 mmHg 52%
    14:00 +23°C° 0,1 mm 4 m/s 731 mmHg 48%
    15:00 +22°C° 0,1 mm 4 m/s 731 mmHg 49%
    16:00 +22°C° 0,1 mm 4 m/s 731 mmHg 50%
    17:00 +21°C° 0,1 mm 4 m/s 731 mmHg 50%
    18:00 +20°C° 0 mm 4 m/s 731 mmHg 57%
    19:00 +19°C° 0 mm 4 m/s 731 mmHg 63%
    20:00 +17°C° 0 mm 4 m/s 731 mmHg 69%
    21:00 +17°C° 0 mm 3 m/s 731 mmHg 72%
    22:00 +16°C° 0 mm 3 m/s 731 mmHg 74%
    23:00 +16°C° 0 mm 3 m/s 731 mmHg 77%

    28 Septembre, Jeudi

    Heure Température Précipitation Vent Pression Humidité
    00:00 +14°C° 0 mm 3 m/s 731 mmHg 78%
    01:00 +14°C° 0 mm 3 m/s 731 mmHg 80%
    02:00 +14°C° 0 mm 2 m/s 731 mmHg 81%
    03:00 +14°C° 0 mm 2 m/s 731 mmHg 81%
    04:00 +13°C° 0 mm 3 m/s 731 mmHg 82%
    05:00 +13°C° 0 mm 3 m/s 731 mmHg 82%
    06:00 +13°C° 0 mm 3 m/s 731 mmHg 79%
    07:00 +14°C° 0 mm 4 m/s 732 mmHg 75%
    08:00 +15°C° 0 mm 4 m/s 732 mmHg 71%
    09:00 +17°C° 0 mm 4 m/s 732 mmHg 65%
    10:00 +17°C° 0 mm 5 m/s 732 mmHg 59%
    11:00 +19°C° 0 mm 5 m/s 732 mmHg 53%
    12:00 +20°C° 0 mm 5 m/s 732 mmHg 50%
    13:00 +21°C° 0 mm 5 m/s 732 mmHg 47%
    14:00 +21°C° 0 mm 5 m/s 732 mmHg 44%
    15:00 +21°C° 0 mm 5 m/s 732 mmHg 46%
    16:00 +20°C° 0 mm 5 m/s 732 mmHg 48%
    17:00 +19°C° 0 mm 5 m/s 732 mmHg 50%
    18:00 +17°C° 0 mm 5 m/s 732 mmHg 55%
    19:00 +17°C° 0 mm 4 m/s 732 mmHg 60%
    20:00 +15°C° 0 mm 4 m/s 732 mmHg 64%
    21:00 +14°C° 0 mm 4 m/s 732 mmHg 68%
    22:00 +13°C° 0 mm 4 m/s 732 mmHg 72%
    23:00 +12°C° 0 mm 3 m/s 732 mmHg 76%
    Voir plus